Change the Weather History Date:

Thursday, November 24, 2011

  Actual Average Record
Temperature  
Mean Temperature 84 °F -  
Max Temperature 89 °F 88 °F 96 °F (1997)
Min Temperature 78 °F 74 °F 71 °F (2013)
Cooling Degree Days 18    
Growing Degree Days 34 (Base 50)    
Moisture  
Dew Point 73 °F    
Average Humidity 73    
Maximum Humidity 88    
Minimum Humidity 57    
Precipitation  
Precipitation 0.12 in 0.12 in - ()
Sea Level Pressure  
Sea Level Pressure 29.77 in    
Wind  
Wind Speed 10 mph ()    
Max Wind Speed 20 mph    
Max Gust Speed -    
Visibility 5.7 miles    
Events Rain    
Averages and records for this station are not official NWS values.
T = Trace of Precipitation, MM = Missing Value Source: Averaged Metar Reports

Daily Weather History Graph

Daily Weather History Graph

Search for Another Location

Airport or City:

Trip Planner

Search our weather history database for the weather conditions in past years. The results will help you decide how hot, cold, wet, or windy it might be!

Date:

Astronomy

Nov. 24, 2011 Rise Set
Actual Time 6:21 AM ICT 6:04 PM ICT
Civil Twilight 5:59 AM ICT 6:26 PM ICT
Nautical Twilight 5:33 AM ICT 6:52 PM ICT
Astronomical Twilight 5:08 AM ICT 7:18 PM ICT
Moon 5:04 AM ICT (11/24) 5:09 PM ICT (11/24)
Length of Visible Light 12h 27m
Length of Day
11h 42m
Waning Crescent, 2% of the Moon is Illuminated
Nov 24
Waning Crescent
Nov 25
New
Dec 2
First Quarter
Dec 10
Full
Dec 18
Last Quarter

Hourly Weather History & Observations

Time (ICT) Temp. Heat Index Dew Point Humidity Pressure Visibility Wind Dir Wind Speed Gust Speed Precip Events Conditions
12:00 AM 80.6 °F 84.6 °F 71.6 °F 74% 29.80 in 5.0 mi East 11.5 mph - N/A   Mostly Cloudy
12:30 AM 80.6 °F 83.9 °F 69.8 °F 70% 29.80 in 5.0 mi East 15.0 mph - N/A   Mostly Cloudy
1:00 AM 79 °F - 76 °F 87% 29.76 in 6 mi East 9.2 mph - -   Mist
1:00 AM 80.6 °F 84.6 °F 71.6 °F 74% 29.77 in 5.0 mi East 19.6 mph - N/A   Mostly Cloudy
1:30 AM 80.6 °F 84.6 °F 71.6 °F 74% 29.77 in 5.0 mi East 12.7 mph - N/A   Mostly Cloudy
3:00 AM 80.6 °F 84.6 °F 71.6 °F 74% 29.74 in 5.0 mi ENE 10.4 mph - N/A   Mostly Cloudy
4:00 AM 80.6 °F 84.6 °F 71.6 °F 74% 29.74 in 5.0 mi East 12.7 mph - N/A   Mostly Cloudy
5:00 AM 80.6 °F 84.6 °F 71.6 °F 74% 29.74 in - East 13.8 mph - N/A   Mostly Cloudy
6:00 AM 80.6 °F 84.6 °F 71.6 °F 74% 29.74 in 5.0 mi ENE 9.2 mph - N/A   Mostly Cloudy
6:30 AM 80.6 °F 83.9 °F 69.8 °F 70% 29.74 in 5.0 mi ENE 12.7 mph - N/A   Mostly Cloudy
7:00 AM 81 °F - 72 °F 67% 29.73 in 6 mi ENE 4.6 mph - -   Mist
7:00 AM 78.8 °F - 71.6 °F 78% 29.74 in 5.0 mi NNE 4.6 mph - N/A   Mostly Cloudy
7:30 AM 78.8 °F - 71.6 °F 78% 29.77 in 5.0 mi Variable 2.3 mph - N/A   Mostly Cloudy
8:00 AM - - - N/A% - 5.0 mi NE 5.8 mph - N/A   Mostly Cloudy
8:30 AM 82.4 °F 87.2 °F 71.6 °F 70% 29.80 in 6.2 mi ENE 13.8 mph - N/A   Mostly Cloudy
9:00 AM 82.4 °F 87.2 °F 71.6 °F 70% 29.80 in 6.2 mi ENE 15.0 mph - N/A   Mostly Cloudy
9:30 AM 82.4 °F 87.2 °F 71.6 °F 70% 29.83 in 6.2 mi ENE 11.5 mph - N/A   Mostly Cloudy
10:00 AM 84.2 °F 89.6 °F 71.6 °F 66% 29.83 in 6.2 mi ENE 11.5 mph - N/A   Mostly Cloudy
10:30 AM 86.0 °F 91.8 °F 71.6 °F 62% 29.83 in 6.2 mi East 11.5 mph - N/A   Mostly Cloudy
11:00 AM 87.8 °F 93.8 °F 71.6 °F 58% 29.83 in 6.2 mi East 11.5 mph - N/A   Mostly Cloudy
11:30 AM 87.8 °F 95.6 °F 73.4 °F 62% 29.80 in 6.2 mi ENE 11.5 mph - N/A   Mostly Cloudy
12:00 PM 87.8 °F 95.6 °F 73.4 °F 62% 29.80 in 6.2 mi East 11.5 mph - N/A   Mostly Cloudy
12:30 PM 87.8 °F 95.6 °F 73.4 °F 62% 29.77 in 6.2 mi East 15.0 mph - N/A   Mostly Cloudy
1:00 PM 87 °F - 74 °F 57% 29.79 in 6 mi East 9.2 mph - -   Scattered Clouds
1:00 PM 87.8 °F 93.8 °F 71.6 °F 58% 29.77 in 6.2 mi ENE 15.0 mph - N/A   Mostly Cloudy
1:30 PM 87.8 °F 93.8 °F 71.6 °F 58% 29.74 in 6.2 mi East 13.8 mph - N/A   Mostly Cloudy
2:00 PM 84.2 °F 90.9 °F 73.4 °F 70% 29.74 in 4.3 mi ESE 11.5 mph - N/A Rain Rain
2:30 PM 84.2 °F 94.1 °F 77.0 °F 79% 29.71 in 6.2 mi ESE 11.5 mph - N/A   Mostly Cloudy
3:00 PM 84.2 °F 92.3 °F 75.2 °F 74% 29.71 in 6.2 mi East 9.2 mph - N/A   Mostly Cloudy
3:30 PM 82.4 °F 89.5 °F 75.2 °F 79% 29.71 in 6.2 mi ENE 11.5 mph - N/A   Mostly Cloudy
4:00 PM 84.2 °F 92.3 °F 75.2 °F 74% 29.71 in 6.2 mi ENE 8.1 mph - N/A   Mostly Cloudy
4:30 PM 84.2 °F 92.3 °F 75.2 °F 74% 29.71 in 6.2 mi East 9.2 mph - N/A   Mostly Cloudy
5:00 PM 84.2 °F 90.9 °F 73.4 °F 70% 29.74 in 5.0 mi ENE 9.2 mph - N/A   Mostly Cloudy
5:30 PM 78.8 °F - 73.4 °F 83% 29.74 in 6.2 mi ENE 8.1 mph - N/A   Mostly Cloudy
6:00 PM 78.8 °F - 73.4 °F 83% 29.74 in 6.2 mi ENE 6.9 mph - N/A   Mostly Cloudy
6:30 PM 78.8 °F - 73.4 °F 83% 29.74 in 6.2 mi ENE 6.9 mph - N/A   Mostly Cloudy
7:00 PM 79 °F - 76 °F 88% 29.74 in 6 mi Calm Calm - -   Partly Cloudy
7:30 PM 80.6 °F 85.4 °F 73.4 °F 79% 29.77 in 6.2 mi ENE 5.8 mph - N/A   Mostly Cloudy
8:00 PM 80.6 °F 85.4 °F 73.4 °F 79% 29.80 in 6.2 mi ENE 9.2 mph - N/A   Mostly Cloudy
8:30 PM 80.6 °F 85.4 °F 73.4 °F 79% 29.80 in 5.0 mi ENE 8.1 mph - N/A   Mostly Cloudy
9:00 PM 80.6 °F 85.4 °F 73.4 °F 79% 29.83 in 5.6 mi ENE 6.9 mph - N/A   Mostly Cloudy
9:30 PM 80.6 °F 85.4 °F 73.4 °F 79% 29.83 in 5.6 mi ENE 5.8 mph - N/A   Mostly Cloudy
10:00 PM 80.6 °F 85.4 °F 73.4 °F 79% 29.83 in 5.6 mi NE 4.6 mph - N/A   Mostly Cloudy
10:30 PM 80.6 °F 85.4 °F 73.4 °F 79% 29.83 in 5.6 mi ENE 5.8 mph - N/A   Mostly Cloudy
11:00 PM 80.6 °F 84.6 °F 71.6 °F 74% 29.83 in 5.6 mi NE 4.6 mph - N/A   Mostly Cloudy
11:30 PM 80.6 °F 84.6 °F 71.6 °F 74% 29.83 in 5.0 mi NE 5.8 mph - N/A   Mostly Cloudy